Flag for U.S.A. Weather past 2 weeks in Fayetteville, North Carolina, U.S.A.

Now
62 °F

Clear.


Feels Like: 62 °F
Forecast: 62 / 81 °F
Wind: 9 mph from Northeast

Location: Fayetteville Regional Airport

Current Time: Sep 20, 2014 at 4:52:06 AM

Latest Report: Sep 20, 2014 at 3:53 AM


Visibility: 10 mi

Pressure: 30.14 "Hg

Humidity: 90%

Dew point: 59 °F

Location of FayettevilleLocation

Historic Weather in Fayetteville — Graph

°F

Fayetteville temperature yesterday

Maximum temperature yesterday: 83 °F (at 2:53 PM)
Minimum temperature yesterday: 64 °F (at 4:53 AM)
Average temperature yesterday: 71 °F

Past Weeks' High & Low Weather Summary

 TemperatureHumidityPressure
High92 °F (Sep 5, 1:53 PM)100% (Sep 13, 6:01 AM)30.22 "Hg (Sep 13, 6:01 AM)
Low62 °F (Sep 20, 1:53 AM)43% (Sep 5, 4:53 PM)29.86 "Hg (Sep 17, 4:53 PM)
Average75 °F83%30.04 "Hg
* Reported Sep 5 2:53 AM — Sep 20 2:53 AM, Fayetteville, Weather by CustomWeather, © 2014

Note: Actual official high and low records may vary slightly from our data, if they occured in-between our weather recording intervals... More about our weather records

Advertising

Fayetteville weather history for previous 24 hours

 ConditionsComfort  
Time TempWeatherWind HumidityBarometerVisibility
2:53 AM
Sep 20
62 °FClear.7 mph90%30.16 "Hg10 mi
1:53 AM62 °FClear.6 mph90%30.18 "Hg10 mi
12:53 AM65 °FClear.7 mph81%30.18 "Hg10 mi
11:53 PM
Sep 19
66 °FClear.8 mph78%30.19 "Hg10 mi
10:53 PM66 °FClear.6 mph81%30.18 "Hg10 mi
9:53 PM68 °FClear.5 mph76%30.16 "Hg10 mi
8:53 PM69 °FClear.5 mph79%30.16 "Hg10 mi
7:53 PM70 °FSunny.6 mph79%30.15 "Hg10 mi
6:53 PM75 °FSunny.9 mph64%30.14 "Hg10 mi
5:53 PM77 °FScattered clouds.7 mph62%30.13 "Hg10 mi
4:53 PM80 °FPassing clouds.6 mph54%30.12 "Hg10 mi
3:53 PM81 °FScattered clouds.8 mph47%30.12 "Hg10 mi
2:53 PM83 °FScattered clouds.12 mph44%30.12 "Hg10 mi
1:53 PM80 °FPartly sunny.7 mph49%30.13 "Hg10 mi
12:53 PM79 °FOvercast.9 mph50%30.13 "Hg10 mi
11:53 AM76 °FPartly sunny.9 mph54%30.14 "Hg10 mi
10:53 AM73 °FSunny.6 mph66%30.14 "Hg10 mi
9:53 AM69 °FPassing clouds.6 mph81%30.14 "Hg10 mi
8:53 AM66 °FPartly sunny.7 mph87%30.12 "Hg10 mi
7:53 AM65 °FPassing clouds.6 mph91%30.11 "Hg10 mi
6:53 AM64 °FPassing clouds.7 mph90%30.08 "Hg10 mi
5:53 AM64 °FOvercast.5 mph90%30.07 "Hg10 mi
4:53 AM64 °FPassing clouds.5 mph90%30.06 "Hg10 mi
Weather by CustomWeather, © 2014

See weather overviewHow to use our weather pages